• în România
  • Lista ţărilor
  • Pe 7 zile
  • Temperatura apei
  • Hartă satelitară
  • Meteo pe hartă
  • Widget-uri
  • user-avatar
    Intrare

    Meteo pe oră la Kigazytamakovo

    Astăzi, 18 Octombrie, Joi

    Timp Temperatura Precipitaţii Vânt Presiune Umiditate
    00:00 +3°C° 0 mm 4 m/s 751 mmHg 81%
    01:00 +1°C° 0 mm 4 m/s 751 mmHg 83%
    02:00 +1°C° 0 mm 4 m/s 751 mmHg 84%
    03:00 +1°C° 0 mm 4 m/s 752 mmHg 86%
    04:00 +1°C° 0 mm 3 m/s 751 mmHg 89%
    05:00 +1°C° 0 mm 3 m/s 752 mmHg 90%
    06:00 -1°C° 0 mm 4 m/s 752 mmHg 91%
    07:00 -1°C° 0 mm 4 m/s 752 mmHg 92%
    08:00 0°C° 0 mm 4 m/s 752 mmHg 89%
    09:00 +1°C° 0 mm 4 m/s 752 mmHg 85%
    10:00 +2°C° 0 mm 5 m/s 752 mmHg 81%
    11:00 +2°C° 0 mm 5 m/s 752 mmHg 78%
    12:00 +2°C° 0 mm 5 m/s 752 mmHg 75%
    13:00 +4°C° 0 mm 4 m/s 752 mmHg 73%
    14:00 +4°C° 0 mm 4 m/s 752 mmHg 73%
    15:00 +4°C° 0 mm 4 m/s 752 mmHg 73%
    16:00 +5°C° 0 mm 2 m/s 752 mmHg 76%
    17:00 +5°C° 0 mm 2 m/s 751 mmHg 80%
    18:00 +4°C° 0 mm 2 m/s 751 mmHg 84%
    19:00 +4°C° 0 mm 2 m/s 751 mmHg 87%
    20:00 +3°C° 0 mm 2 m/s 751 mmHg 88%
    21:00 +3°C° 0 mm 2 m/s 751 mmHg 89%
    22:00 +3°C° 0 mm 2 m/s 750 mmHg 90%
    23:00 +2°C° 0 mm 3 m/s 750 mmHg 88%

    Mâine, 19 Octombrie, Vineri

    Timp Temperatura Precipitaţii Vânt Presiune Umiditate
    00:00 +3°C° 0 mm 3 m/s 749 mmHg 87%
    01:00 +3°C° 0 mm 3 m/s 749 mmHg 85%
    02:00 +3°C° 0 mm 3 m/s 749 mmHg 86%
    03:00 +3°C° 0 mm 3 m/s 748 mmHg 88%
    04:00 +3°C° 0 mm 4 m/s 748 mmHg 90%
    05:00 +3°C° 0 mm 3 m/s 748 mmHg 91%
    06:00 +3°C° 0 mm 3 m/s 748 mmHg 92%
    07:00 +3°C° 0 mm 3 m/s 747 mmHg 94%
    08:00 +4°C° 0 mm 3 m/s 747 mmHg 93%
    09:00 +4°C° 0 mm 3 m/s 747 mmHg 92%
    10:00 +5°C° 0 mm 3 m/s 747 mmHg 91%
    11:00 +7°C° 0 mm 3 m/s 747 mmHg 90%
    12:00 +7°C° 0 mm 3 m/s 747 mmHg 89%
    13:00 +8°C° 0 mm 3 m/s 747 mmHg 88%
    14:00 +8°C° 0 mm 3 m/s 747 mmHg 88%
    15:00 +8°C° 0 mm 3 m/s 747 mmHg 89%
    16:00 +9°C° 0 mm 3 m/s 747 mmHg 89%
    17:00 +8°C° 0 mm 3 m/s 746 mmHg 90%
    18:00 +8°C° 0 mm 3 m/s 746 mmHg 91%
    19:00 +8°C° 0 mm 3 m/s 746 mmHg 92%
    20:00 +8°C° 0 mm 3 m/s 746 mmHg 92%
    21:00 +8°C° 0 mm 3 m/s 746 mmHg 93%
    22:00 +6°C° 0 mm 4 m/s 745 mmHg 93%
    23:00 +6°C° 0 mm 4 m/s 745 mmHg 93%

    Poimâine, 20 Octombrie, Sâmbătă

    Timp Temperatura Precipitaţii Vânt Presiune Umiditate
    00:00 +6°C° 0 mm 4 m/s 745 mmHg 94%
    01:00 +7°C° 0 mm 4 m/s 745 mmHg 94%
    02:00 +7°C° 0.3 mm 4 m/s 744 mmHg 95%
    03:00 +7°C° 0.3 mm 4 m/s 744 mmHg 95%
    04:00 +8°C° 0.3 mm 4 m/s 744 mmHg 96%
    05:00 +8°C° 0.5 mm 4 m/s 744 mmHg 96%
    06:00 +8°C° 0.5 mm 4 m/s 744 mmHg 96%
    07:00 +8°C° 0.5 mm 4 m/s 744 mmHg 96%
    08:00 +8°C° 0.4 mm 4 m/s 744 mmHg 95%
    09:00 +9°C° 0.4 mm 3 m/s 744 mmHg 93%
    10:00 +9°C° 0.4 mm 3 m/s 744 mmHg 92%
    11:00 +10°C° 0.6 mm 3 m/s 744 mmHg 86%
    12:00 +10°C° 0.6 mm 3 m/s 744 mmHg 81%
    13:00 +10°C° 0.6 mm 3 m/s 744 mmHg 75%
    14:00 +10°C° 0 mm 3 m/s 744 mmHg 74%
    15:00 +10°C° 0 mm 3 m/s 744 mmHg 72%
    16:00 +9°C° 0 mm 3 m/s 744 mmHg 71%
    17:00 +8°C° 0 mm 3 m/s 745 mmHg 74%
    18:00 +7°C° 0 mm 3 m/s 745 mmHg 77%
    19:00 +5°C° 0 mm 3 m/s 745 mmHg 80%
    20:00 +5°C° 0 mm 3 m/s 746 mmHg 82%
    21:00 +4°C° 0 mm 3 m/s 746 mmHg 83%
    22:00 +4°C° 0 mm 3 m/s 746 mmHg 84%
    23:00 +4°C° 0 mm 3 m/s 746 mmHg 86%

    21 Octombrie, Duminică

    Timp Temperatura Precipitaţii Vânt Presiune Umiditate
    00:00 +4°C° 0 mm 3 m/s 747 mmHg 88%
    01:00 +4°C° 0 mm 3 m/s 747 mmHg 89%
    02:00 +3°C° 0 mm 3 m/s 747 mmHg 91%
    03:00 +3°C° 0 mm 3 m/s 747 mmHg 92%
    04:00 +3°C° 0 mm 3 m/s 748 mmHg 93%
    05:00 +3°C° 0 mm 3 m/s 748 mmHg 94%
    06:00 +2°C° 0 mm 3 m/s 748 mmHg 94%
    07:00 +2°C° 0 mm 3 m/s 749 mmHg 95%
    08:00 +3°C° 0 mm 3 m/s 749 mmHg 90%
    09:00 +4°C° 0 mm 4 m/s 750 mmHg 86%
    10:00 +4°C° 0 mm 4 m/s 750 mmHg 82%
    11:00 +5°C° 0 mm 4 m/s 751 mmHg 78%
    12:00 +5°C° 0 mm 4 m/s 751 mmHg 74%
    13:00 +5°C° 0 mm 4 m/s 752 mmHg 71%
    14:00 +4°C° 0 mm 4 m/s 752 mmHg 71%
    15:00 +4°C° 0 mm 4 m/s 752 mmHg 70%
    16:00 +4°C° 0 mm 4 m/s 753 mmHg 70%
    17:00 +3°C° 0 mm 3 m/s 753 mmHg 74%
    18:00 +2°C° 0 mm 3 m/s 753 mmHg 77%
    19:00 +2°C° 0 mm 2 m/s 754 mmHg 80%
    20:00 +2°C° 0 mm 2 m/s 754 mmHg 81%
    21:00 +2°C° 0 mm 2 m/s 754 mmHg 82%
    22:00 +1°C° 0 mm 2 m/s 755 mmHg 83%
    23:00 +2°C° 0 mm 1 m/s 755 mmHg 83%

    22 Octombrie, Luni

    Timp Temperatura Precipitaţii Vânt Presiune Umiditate
    00:00 +2°C° 0 mm 1 m/s 755 mmHg 83%
    01:00 +1°C° 0 mm 1 m/s 755 mmHg 83%
    02:00 +1°C° 0 mm 1 m/s 756 mmHg 83%
    03:00 +1°C° 0 mm 1 m/s 756 mmHg 82%
    04:00 +1°C° 0 mm 1 m/s 756 mmHg 82%
    05:00 +1°C° 0 mm 1 m/s 756 mmHg 81%
    06:00 0°C° 0 mm 1 m/s 756 mmHg 80%
    07:00 0°C° 0 mm 1 m/s 757 mmHg 79%
    08:00 +1°C° 0 mm 1 m/s 757 mmHg 74%
    09:00 +2°C° 0 mm 1 m/s 757 mmHg 68%
    10:00 +2°C° 0 mm 1 m/s 757 mmHg 63%
    11:00 +3°C° 0 mm 1 m/s 757 mmHg 60%
    12:00 +3°C° 0 mm 1 m/s 757 mmHg 58%
    13:00 +4°C° 0 mm 1 m/s 757 mmHg 56%
    14:00 +4°C° 0 mm 1 m/s 757 mmHg 58%
    15:00 +3°C° 0 mm 1 m/s 757 mmHg 60%
    16:00 +3°C° 0 mm 1 m/s 757 mmHg 62%
    17:00 +2°C° 0 mm 1 m/s 757 mmHg 65%
    18:00 +1°C° 0 mm 0 m/s 757 mmHg 68%
    19:00 0°C° 0 mm 0 m/s 757 mmHg 71%
    20:00 0°C° 0 mm 0 m/s 757 mmHg 71%
    21:00 0°C° 0 mm 0 m/s 757 mmHg 72%
    22:00 0°C° 0 mm 0 m/s 757 mmHg 72%
    23:00 +1°C° 0 mm 1 m/s 757 mmHg 73%

    23 Octombrie, Marţi

    Timp Temperatura Precipitaţii Vânt Presiune Umiditate
    00:00 +1°C° 0 mm 1 m/s 757 mmHg 73%
    01:00 0°C° 0 mm 1 m/s 757 mmHg 73%
    02:00 0°C° 0 mm 1 m/s 756 mmHg 73%
    03:00 0°C° 0 mm 1 m/s 756 mmHg 74%
    04:00 0°C° 0 mm 1 m/s 756 mmHg 74%
    05:00 0°C° 0 mm 1 m/s 756 mmHg 75%
    06:00 0°C° 0 mm 1 m/s 756 mmHg 75%
    07:00 -2°C° 0 mm 2 m/s 756 mmHg 76%
    08:00 -1°C° 0 mm 2 m/s 756 mmHg 71%
    09:00 +1°C° 0 mm 2 m/s 755 mmHg 66%
    10:00 +1°C° 0 mm 3 m/s 755 mmHg 62%
    11:00 +2°C° 0 mm 3 m/s 755 mmHg 59%
    12:00 +3°C° 0 mm 3 m/s 755 mmHg 57%
    13:00 +4°C° 0 mm 3 m/s 755 mmHg 54%
    14:00 +3°C° 0 mm 3 m/s 755 mmHg 58%
    15:00 +3°C° 0 mm 3 m/s 754 mmHg 62%
    16:00 +2°C° 0 mm 3 m/s 754 mmHg 66%
    17:00 +2°C° 0 mm 3 m/s 754 mmHg 68%
    18:00 +1°C° 0 mm 3 m/s 754 mmHg 71%
    19:00 0°C° 0 mm 3 m/s 754 mmHg 74%
    20:00 0°C° 0 mm 3 m/s 753 mmHg 74%
    21:00 0°C° 0 mm 3 m/s 753 mmHg 74%
    22:00 0°C° 0 mm 3 m/s 753 mmHg 75%
    23:00 0°C° 0 mm 3 m/s 752 mmHg 74%
    Arată mai mult